Wind_Speed
6 6 7 7 7 7 7 8 8 8 9 9 9 9 9 9 9 8 8 7 7 7 7 7 8 8 8 7 7 7 8 9 9 9 8 9 9 8 9 9 10 11 12
6 7 7 7 7 7 8 8 8 8 8 9 9 9 9 9 8 8 7 7 7 7 7 7 8 8 7 8 7 7 8 9 9 9 9 9 9 9 10 10 10 11 12
7 7 7 8 8 8 8 8 8 9 9 8 9 9 9 9 8 7 7 7 7 7 8 8 8 8 8 8 9 9 9 9 10 10 10 10 10 10 10 10 11 11 12
8 8 7 8 8 8 7 7 8 8 8 8 8 9 9 8 8 7 7 7 7 8 8 8 9 9 8 9 9 10 10 10 10 10 11 11 11 12 11 11 11 12 12
8 7 8 8 8 7 7 7 8 8 8 8 8 8 9 8 8 8 8 8 8 8 8 9 9 9 9 10 10 11 11 11 11 11 11 11 12 12 12 12 12 11 11
8 8 8 8 8 7 7 7 8 8 9 9 8 8 9 9 9 9 8 8 8 8 8 9 9 10 10 11 11 11 12 12 12 12 12 12 12 12 12 12 12 12 11
8 8 8 8 8 8 8 8 8 9 9 9 9 9 9 9 9 9 9 8 9 9 9 10 10 10 10 11 11 12 13 13 12 12 13 13 13 13 13 13 13 12 12
8 8 8 8 8 8 8 8 9 10 10 10 9 9 9 10 9 9 9 9 10 10 10 10 10 11 11 11 12 12 13 12 13 13 13 13 13 13 13 13 13 13 12
9 9 8 8 8 8 9 9 9 10 10 10 10 9 9 10 10 10 10 10 10 11 11 11 11 11 11 11 11 12 12 12 13 13 13 13 14 13 13 13 13 13 13
9 9 9 9 9 9 9 9 10 10 10 10 10 10 10 10 11 11 11 11 12 11 11 11 11 11 11 11 11 11 12 12 12 12 12 13 13 13 13 13 13 13 14
9 9 10 10 10 10 10 11 11 11 11 11 11 11 11 11 11 11 12 12 13 12 12 12 11 11 11 11 11 12 11 12 12 13 13 12 13 12 12 13 13 14 14
11 11 11 11 11 11 11 11 11 11 12 12 12 12 12 12 12 12 13 13 13 13 13 13 12 11 11 11 12 12 12 12 12 12 12 12 12 12 12 12 13 14 14
12 12 11 11 12 12 12 12 12 12 13 13 13 13 13 13 13 13 13 13 13 13 13 13 13 13 12 12 12 12 13 13 13 12 12 12 12 12 13 14 14 14 14
13 13 13 13 13 13 13 13 13 13 13 13 14 14 14 14 14 13 13 13 13 13 13 13 13 13 13 13 12 13 13 13 13 13 12 13 13 13 14 14 15 15 15
14 14 15 14 14 14 15 15 15 14 15 15 14 14 14 14 14 14 14 14 14 13 14 14 14 14 14 14 13 13 13 13 13 13 13 14 14 14 15 16 16 16 16
15 15 15 15 15 16 16 16 16 15 16 16 16 15 15 15 15 15 15 15 14 15 15 14 14 15 14 13 13 13 13 13 14 14 14 14 15 16 16 16 16 16 17
17 16 16 16 17 17 17 17 17 17 16 17 17 16 16 16 15 15 15 15 15 16 16 15 15 14 14 14 14 14 14 14 14 14 15 15 15 16 16 17 17 18 18
17 18 17 17 18 19 19 18 18 18 18 18 18 17 17 16 16 16 15 16 16 16 16 16 15 15 14 14 14 15 15 15 15 15 16 16 17 17 17 18 18 18 19
18 18 18 18 18 18 18 18 18 18 18 18 18 18 17 17 17 17 16 16 16 16 16 16 16 16 16 15 15 15 16 16 16 16 17 17 18 18 19 19 19 19 19
19 18 18 19 19 19 18 18 18 18 18 18 18 17 17 17 17 17 17 17 17 16 16 16 17 17 17 17 17 17 17 17 17 18 18 18 18 18 19 19 20 20 20
19 19 19 19 19 19 19 19 19 19 19 18 18 18 17 17 17 17 17 17 17 17 17 17 17 17 18 18 18 18 18 18 18 18 18 18 19 19 19 20 20 21 21
20 20 20 19 19 19 19 20 20 20 19 19 18 18 18 18 17 17 17 17 18 18 18 18 19 19 19 20 20 20 20 20 20 19 19 19 19 20 20 21 21 22 22
21 21 20 20 20 20 20 21 21 21 19 19 19 19 19 18 19 19 19 19 19 19 20 20 20 21 21 21 21 20 21 21 21 21 21 22 22 21 21 21 22 23 23
22 21 21 22 21 21 21 21 20 20 20 19 19 19 19 19 20 20 20 20 20 20 20 20 20 20 21 21 21 21 21 21 22 22 22 23 23 23 23 23 24 24 24
23 23 23 23 22 22 22 22 21 21 21 21 20 20 19 20 21 21 21 21 21 20 20 20 20 21 21 22 22 23 22 22 23 24 24 24 24 24 24 24 25 25 25
24 24 24 23 23 23 23 22 22 22 22 22 22 22 22 23 23 22 22 22 22 22 22 22 22 22 22 22 23 23 23 24 25 25 25 25 25 25 25 25 25 26 26
Wind_Direction
293 291 287 282 284 286 287 287 289 290 290 291 287 286 286 285 281 281 282 286 286 283 284 286 287 281 276 278 277 267 260 256 256 257 259 258 256 254 256 256 255 257 260
292 292 291 287 286 286 285 288 287 288 289 289 287 284 283 285 282 281 279 282 284 279 282 286 281 276 278 278 278 276 261 254 253 256 258 259 257 255 258 260 259 260 263
289 288 290 291 291 289 288 287 285 283 286 288 285 284 282 278 278 277 277 282 282 279 278 280 283 281 278 276 271 272 267 259 256 256 260 262 262 261 262 263 264 265 265
290 292 291 289 291 291 288 286 285 284 284 284 283 283 281 275 273 272 276 282 282 279 279 279 280 281 280 277 272 271 270 268 267 261 261 264 265 263 262 263 265 267 266
289 291 293 288 289 290 287 284 282 285 286 286 284 281 279 277 272 272 274 278 280 279 279 280 280 280 278 279 276 272 271 270 270 268 267 267 267 264 262 264 268 269 268
284 289 291 289 290 290 288 287 288 292 293 288 283 279 278 275 273 269 271 275 277 279 281 282 281 280 278 279 276 272 272 271 269 270 271 272 268 264 265 265 266 266 267
284 286 285 289 289 288 286 286 291 299 299 292 285 277 273 272 271 272 273 275 275 278 279 281 281 280 277 276 275 273 274 275 271 272 273 273 271 268 266 267 269 271 271
288 287 284 285 286 287 288 289 294 299 296 292 287 281 275 272 272 274 275 274 277 279 280 280 282 281 279 277 278 274 273 275 273 274 272 270 270 270 270 268 269 271 273
283 284 288 286 287 288 289 293 296 296 294 293 291 284 278 274 273 272 275 276 277 278 278 280 280 278 277 279 279 275 274 273 273 273 269 268 268 267 265 266 269 272 275
281 282 286 289 289 290 291 294 298 298 296 293 290 286 281 278 277 274 275 277 277 276 277 279 280 279 279 279 281 277 275 273 272 273 272 270 268 267 268 270 270 272 274
283 285 284 287 287 288 289 291 294 295 295 291 287 285 283 280 279 277 275 276 278 277 279 278 280 277 277 279 280 280 278 274 272 273 275 274 273 273 273 273 272 273 274
279 282 284 286 286 286 287 290 292 292 292 290 287 285 285 283 282 279 275 275 277 279 279 279 279 278 279 279 278 278 276 274 275 277 275 273 273 272 273 275 276 275 277
276 278 279 281 281 283 285 288 289 289 290 289 288 286 284 281 281 280 277 275 275 277 278 278 278 278 280 280 279 278 277 274 274 275 276 277 276 277 276 276 278 279 281
276 274 276 277 278 280 282 285 287 287 287 287 286 285 285 282 280 279 277 277 276 276 276 277 278 278 279 278 277 277 277 275 273 274 275 276 277 279 280 282 281 281 283
274 275 277 276 275 276 279 282 284 285 285 285 283 282 283 283 279 278 277 276 275 276 276 274 274 276 278 277 274 275 276 277 275 276 277 278 279 280 282 282 282 284 286
274 276 275 274 275 277 278 280 282 284 284 284 283 282 282 281 278 278 277 275 276 277 278 274 273 272 273 274 274 276 278 278 278 280 280 281 281 282 283 283 284 285 288
272 274 275 274 275 277 278 279 280 282 281 282 282 282 283 280 280 279 278 275 275 275 276 274 272 271 270 272 273 275 277 279 279 281 282 284 284 283 283 284 285 286 288
271 272 272 274 275 277 278 277 277 278 279 279 280 281 282 280 278 279 278 275 274 273 274 274 272 270 271 272 273 275 277 279 281 281 282 283 284 284 283 285 286 287 290
271 271 271 273 277 279 280 279 277 276 278 279 279 279 279 279 278 277 276 274 273 273 273 274 272 270 270 271 273 274 276 278 280 281 281 283 284 285 285 286 287 288 291
269 270 273 275 276 277 278 279 279 278 278 279 278 277 278 278 277 276 275 273 272 271 272 273 271 270 270 271 272 273 274 276 279 281 282 283 283 285 286 287 288 290 292
269 269 273 276 277 275 276 278 280 279 278 276 275 275 277 277 276 274 273 273 272 272 273 274 273 270 270 272 272 272 275 276 278 280 282 283 283 284 286 287 290 291 292
271 271 272 274 275 277 278 279 279 280 279 277 275 275 277 274 273 272 272 274 274 272 272 274 274 272 270 270 272 273 275 275 277 279 280 282 284 283 286 288 288 289 291
271 270 270 272 274 277 279 281 280 279 277 276 275 273 273 273 271 271 271 273 275 275 273 275 274 274 272 271 272 274 274 275 278 280 280 282 285 286 288 287 288 289 291
270 269 269 272 273 274 276 278 279 279 278 276 275 275 274 274 272 272 273 273 274 276 275 276 275 275 273 272 272 273 275 276 277 279 281 282 285 286 288 288 289 290 292
270 269 270 271 270 271 273 274 276 278 277 277 276 275 274 274 275 274 274 274 274 274 275 276 276 275 274 273 274 275 275 277 277 278 280 282 284 286 288 289 289 291 292
271 272 270 270 269 270 271 273 274 275 277 277 276 274 273 273 274 274 274 274 273 274 275 276 276 275 274 273 275 277 278 278 278 278 279 282 284 286 287 288 288 290 292
Height
5860 5860 5860 5859 5859 5859 5859 5859 5859 5859 5858 5858 5858 5858 5857 5857 5857 5857 5857 5856 5855 5855 5855 5855 5855 5855 5855 5854 5854 5854 5855 5855 5855 5855 5855 5855 5856 5856 5856 5856 5857 5857 5857
5859 5859 5858 5858 5858 5858 5858 5857 5857 5857 5857 5856 5856 5856 5855 5855 5855 5855 5855 5855 5854 5854 5853 5853 5853 5853 5853 5853 5853 5853 5853 5853 5853 5853 5853 5853 5854 5854 5854 5854 5855 5855 5855
5858 5857 5857 5857 5857 5856 5856 5856 5855 5855 5855 5854 5854 5854 5854 5853 5853 5853 5853 5853 5853 5852 5852 5852 5851 5851 5851 5851 5851 5851 5851 5851 5851 5851 5851 5851 5851 5852 5852 5852 5852 5852 5852
5856 5856 5856 5855 5855 5855 5854 5854 5854 5853 5853 5852 5852 5852 5852 5851 5851 5851 5851 5851 5851 5850 5850 5850 5850 5849 5849 5849 5849 5849 5849 5849 5849 5849 5849 5849 5849 5849 5849 5850 5850 5849 5849
5855 5855 5854 5854 5853 5853 5853 5852 5852 5851 5851 5850 5850 5850 5850 5849 5849 5849 5849 5849 5849 5849 5848 5848 5848 5848 5847 5847 5847 5847 5847 5846 5846 5846 5846 5846 5846 5846 5846 5847 5847 5846 5846
5853 5853 5852 5852 5852 5851 5851 5850 5850 5849 5849 5849 5848 5848 5847 5847 5847 5847 5847 5847 5847 5847 5846 5846 5846 5845 5845 5845 5845 5844 5844 5844 5844 5844 5843 5843 5844 5844 5844 5844 5844 5844 5843
5851 5851 5851 5850 5850 5850 5849 5848 5848 5847 5847 5846 5846 5846 5845 5845 5845 5845 5845 5845 5845 5844 5844 5844 5843 5843 5843 5842 5842 5842 5841 5841 5841 5841 5841 5840 5841 5841 5841 5841 5841 5841 5841
5849 5849 5848 5848 5848 5848 5847 5847 5846 5845 5845 5844 5844 5844 5843 5844 5842 5842 5842 5842 5842 5842 5841 5841 5840 5840 5840 5840 5839 5839 5839 5838 5838 5838 5837 5837 5837 5838 5838 5838 5838 5838 5838
5847 5847 5847 5846 5846 5845 5845 5845 5844 5844 5843 5842 5841 5841 5841 5841 5840 5840 5840 5840 5840 5839 5839 5838 5838 5837 5837 5837 5837 5836 5836 5836 5835 5835 5834 5834 5834 5834 5834 5834 5835 5835 5835
5845 5845 5844 5844 5844 5843 5843 5842 5842 5841 5841 5840 5839 5839 5839 5838 5838 5838 5838 5837 5837 5836 5836 5835 5835 5834 5834 5834 5834 5833 5833 5833 5832 5832 5832 5831 5831 5831 5831 5831 5832 5831 5831
5843 5842 5842 5842 5841 5841 5840 5840 5840 5839 5838 5838 5837 5836 5836 5835 5835 5835 5835 5834 5834 5834 5833 5832 5832 5832 5831 5831 5831 5831 5830 5830 5830 5829 5829 5828 5828 5828 5828 5828 5828 5828 5828
5840 5840 5839 5839 5839 5838 5838 5837 5837 5836 5835 5834 5834 5833 5833 5832 5832 5832 5832 5831 5831 5830 5830 5829 5829 5829 5828 5828 5828 5827 5827 5827 5826 5826 5826 5825 5825 5825 5825 5825 5824 5824 5824
5837 5837 5836 5836 5836 5835 5835 5834 5833 5833 5832 5831 5830 5830 5829 5829 5829 5828 5828 5828 5828 5827 5826 5826 5826 5825 5825 5825 5824 5824 5824 5823 5823 5823 5823 5822 5822 5822 5821 5821 5821 5820 5820
5834 5833 5833 5833 5832 5832 5831 5831 5830 5829 5828 5828 5827 5826 5826 5825 5825 5825 5825 5824 5824 5824 5823 5823 5822 5822 5822 5821 5821 5821 5820 5820 5820 5819 5819 5819 5819 5818 5818 5817 5817 5817 5816
5830 5830 5829 5829 5828 5828 5827 5827 5826 5825 5825 5824 5823 5822 5822 5821 5821 5821 5820 5820 5820 5820 5819 5819 5819 5818 5818 5818 5817 5817 5817 5817 5816 5816 5816 5815 5815 5815 5814 5814 5813 5812 5812
5826 5825 5825 5824 5824 5823 5823 5823 5822 5821 5820 5820 5819 5818 5818 5817 5817 5816 5816 5816 5816 5816 5815 5815 5815 5815 5814 5814 5814 5814 5814 5813 5813 5812 5812 5811 5811 5811 5810 5809 5809 5808 5807
5821 5820 5820 5820 5819 5819 5818 5818 5817 5816 5816 5815 5814 5814 5813 5813 5812 5812 5811 5811 5811 5811 5811 5811 5811 5810 5810 5810 5810 5810 5810 5809 5809 5808 5808 5807 5807 5806 5806 5805 5804 5803 5802
5815 5815 5815 5815 5814 5814 5813 5812 5812 5811 5810 5810 5809 5809 5808 5808 5808 5807 5807 5807 5807 5806 5806 5806 5806 5806 5806 5806 5806 5806 5805 5805 5805 5804 5804 5803 5803 5802 5801 5800 5799 5798 5797
5810 5810 5809 5809 5809 5808 5807 5807 5806 5806 5805 5804 5804 5804 5803 5803 5803 5802 5802 5802 5802 5802 5801 5801 5801 5802 5801 5801 5801 5801 5801 5801 5800 5800 5799 5798 5798 5797 5796 5795 5794 5793 5791
5804 5804 5804 5804 5803 5803 5802 5802 5801 5800 5800 5799 5799 5798 5798 5797 5797 5797 5797 5797 5796 5796 5796 5796 5796 5796 5797 5796 5797 5796 5796 5796 5795 5795 5794 5793 5793 5792 5791 5789 5788 5787 5786
5799 5799 5799 5798 5798 5797 5797 5796 5796 5795 5794 5794 5793 5793 5792 5792 5792 5792 5792 5791 5791 5791 5791 5791 5791 5791 5791 5791 5791 5791 5791 5791 5790 5789 5789 5788 5787 5786 5785 5784 5783 5781 5780
5793 5793 5793 5793 5793 5792 5792 5791 5790 5789 5789 5788 5788 5788 5787 5787 5787 5786 5786 5786 5786 5786 5786 5786 5785 5785 5785 5785 5785 5785 5785 5785 5785 5785 5783 5782 5781 5780 5779 5778 5777 5775 5774
5787 5787 5787 5787 5787 5786 5786 5785 5784 5783 5783 5783 5782 5782 5782 5781 5781 5781 5781 5780 5780 5780 5780 5780 5780 5779 5779 5779 5779 5779 5779 5778 5778 5778 5777 5776 5775 5774 5773 5772 5770 5769 5767
5781 5781 5781 5781 5780 5780 5779 5779 5778 5778 5777 5777 5777 5776 5776 5776 5775 5775 5775 5774 5774 5774 5773 5773 5773 5773 5772 5772 5772 5772 5772 5772 5772 5771 5770 5770 5768 5767 5766 5765 5763 5762 5760
5774 5774 5774 5774 5774 5773 5773 5772 5772 5772 5771 5771 5771 5770 5770 5769 5769 5769 5769 5768 5768 5767 5767 5766 5766 5766 5766 5765 5765 5765 5765 5765 5765 5764 5763 5762 5761 5760 5759 5758 5756 5754 5753
5767 5767 5767 5767 5767 5766 5766 5766 5766 5765 5765 5765 5764 5764 5764 5763 5763 5762 5762 5761 5761 5761 5760 5760 5759 5759 5758 5758 5757 5757 5757 5757 5756 5756 5755 5754 5753 5752 5751 5750 5748 5747 5745